This is the latest recevied weather packets stored in our database for station/object VK3AFQ-13. If no packets are shown the sender has not sent any weather packets the latest 10 day(s).
| Time | Temp. | Humidity | Pressure | Rain* | Wind** | Luminosity | Snow |
|---|---|---|---|---|---|---|---|
| 1778149864 | 11.11° C | 72% | 1026 hPa | - | - | - | - |
| 1778148964 | 11.11° C | 71% | 1026 hPa | - | - | - | - |
| 1778148062 | 11.11° C | 70% | 1025.7 hPa | - | - | - | - |
| 1778147164 | 11.67° C | 70% | 1025.7 hPa | - | - | - | - |
| 1778146264 | 11.67° C | 70% | 1025.8 hPa | - | - | - | - |
| 1778145364 | 11.67° C | 70% | 1025.6 hPa | - | - | - | - |
| 1778144462 | 11.11° C | 70% | 1025.6 hPa | - | - | - | - |
| 1778143564 | 11.11° C | 70% | 1025.4 hPa | - | - | - | - |
| 1778142664 | 11.11° C | 70% | 1025.3 hPa | - | - | - | - |
| 1778141764 | 11.67° C | 68% | 1025.2 hPa | - | - | - | - |
| 1778140862 | 11.67° C | 67% | 1024.9 hPa | - | - | - | - |
| 1778139964 | 12.22° C | 66% | 1025.1 hPa | - | - | - | - |
| 1778139063 | 12.22° C | 64% | 1025 hPa | - | - | - | - |
| 1778138163 | 12.78° C | 63% | 1024.8 hPa | - | - | - | - |
| 1778137262 | 12.78° C | 62% | 1024.8 hPa | - | - | - | - |
| 1778136364 | 13.33° C | 60% | 1024.9 hPa | - | - | - | - |
| 1778135463 | 13.33° C | 59% | 1025 hPa | - | - | - | - |
| 1778134564 | 13.33° C | 58% | 1024.7 hPa | - | - | - | - |
| 1778133662 | 13.33° C | 61% | 1024.9 hPa | - | - | - | - |
| 1778132763 | 13.33° C | 60% | 1024.9 hPa | - | - | - | - |
| 1778131864 | 13.33° C | 61% | 1025.1 hPa | - | - | - | - |
| 1778130964 | 13.33° C | 59% | 1025.1 hPa | - | - | - | - |
| 1778130062 | 13.33° C | 60% | 1024.9 hPa | - | - | - | - |
| 1778129164 | 13.33° C | 60% | 1025 hPa | - | - | - | - |
| 1778128264 | 12.78° C | 59% | 1024.9 hPa | - | - | - | - |
* Rain since midnight (hover to see other rain measurements)
** Current wind speed in m/s (hover to see current wind gust speed)